Year,Month,Day,Hour,Minute,Value (Times are PST for temperature in C)
2017,05,28,00,00,9.30
2017,05,28,00,01,9.30
2017,05,28,00,02,9.30
2017,05,28,00,03,9.30
2017,05,28,00,04,9.30
2017,05,28,00,05,9.30
2017,05,28,00,06,9.30
2017,05,28,00,07,9.30
2017,05,28,00,08,9.30
2017,05,28,00,09,9.30
2017,05,28,00,10,9.30
2017,05,28,00,11,9.30
2017,05,28,00,12,9.30
2017,05,28,00,13,9.30
2017,05,28,00,14,9.30
2017,05,28,00,15,9.30
2017,05,28,00,16,9.40
2017,05,28,00,17,9.40
2017,05,28,00,18,9.50
2017,05,28,00,19,9.50
2017,05,28,00,20,9.40
2017,05,28,00,21,9.40
2017,05,28,00,22,9.40
2017,05,28,00,23,9.40
2017,05,28,00,24,9.40
2017,05,28,00,25,9.50
2017,05,28,00,26,9.60
2017,05,28,00,27,9.60
2017,05,28,00,28,9.70
2017,05,28,00,29,9.70
2017,05,28,00,30,9.80
2017,05,28,00,31,9.90
2017,05,28,00,32,9.90
2017,05,28,00,33,10.00
2017,05,28,00,34,10.00
2017,05,28,00,35,10.00
2017,05,28,00,36,10.00
2017,05,28,00,37,10.00
2017,05,28,00,38,9.90
2017,05,28,00,39,9.90
2017,05,28,00,40,9.90
2017,05,28,00,41,9.90
2017,05,28,00,42,10.00
2017,05,28,00,43,10.00
2017,05,28,00,44,10.10
2017,05,28,00,45,10.10
2017,05,28,00,46,10.10
2017,05,28,00,47,10.10
2017,05,28,00,48,10.00
2017,05,28,00,49,10.00
2017,05,28,00,50,10.00
2017,05,28,00,51,10.00
2017,05,28,00,52,10.00
2017,05,28,00,53,10.00
2017,05,28,00,54,10.10
2017,05,28,00,55,10.00
2017,05,28,00,56,10.00
2017,05,28,00,57,10.10
2017,05,28,00,58,10.10
2017,05,28,00,59,10.10
2017,05,28,01,00,10.10
2017,05,28,01,01,10.10
2017,05,28,01,02,10.10
2017,05,28,01,03,10.00
2017,05,28,01,04,10.00
2017,05,28,01,05,9.90
2017,05,28,01,06,9.90
2017,05,28,01,07,9.90
2017,05,28,01,08,9.90
2017,05,28,01,09,9.80
2017,05,28,01,10,9.80
2017,05,28,01,11,9.80
2017,05,28,01,12,9.90
2017,05,28,01,13,9.90
2017,05,28,01,14,9.90
2017,05,28,01,15,9.90
2017,05,28,01,16,9.90
2017,05,28,01,17,9.90
2017,05,28,01,18,9.80
2017,05,28,01,19,9.80
2017,05,28,01,20,9.80
2017,05,28,01,21,9.80
2017,05,28,01,22,9.70
2017,05,28,01,23,9.70
2017,05,28,01,24,9.70
2017,05,28,01,25,9.60
2017,05,28,01,26,9.60
2017,05,28,01,27,9.60
2017,05,28,01,28,9.60
2017,05,28,01,29,9.60
2017,05,28,01,30,9.60
2017,05,28,01,31,9.60
2017,05,28,01,32,9.60
2017,05,28,01,33,9.60
2017,05,28,01,34,9.50
2017,05,28,01,35,9.50
2017,05,28,01,36,9.50
2017,05,28,01,37,9.40
2017,05,28,01,38,9.40
2017,05,28,01,39,9.40
2017,05,28,01,40,9.40
2017,05,28,01,41,9.40
2017,05,28,01,42,9.40
2017,05,28,01,43,9.40
2017,05,28,01,44,9.30
2017,05,28,01,45,9.30
2017,05,28,01,46,9.30
2017,05,28,01,47,9.30
2017,05,28,01,48,9.30
2017,05,28,01,49,9.30
2017,05,28,01,50,9.30
2017,05,28,01,51,9.30
2017,05,28,01,52,9.30
2017,05,28,01,53,9.30
2017,05,28,01,54,9.30
2017,05,28,01,55,9.20
2017,05,28,01,56,9.20
2017,05,28,01,57,9.20
2017,05,28,01,58,9.20
2017,05,28,01,59,9.20
2017,05,28,02,00,9.20
2017,05,28,02,01,9.20
2017,05,28,02,02,9.20
2017,05,28,02,03,9.20
2017,05,28,02,04,9.20
2017,05,28,02,05,9.20
2017,05,28,02,06,9.20
2017,05,28,02,07,9.20
2017,05,28,02,08,9.20
2017,05,28,02,09,9.20
2017,05,28,02,10,9.20
2017,05,28,02,11,9.20
2017,05,28,02,12,9.10
2017,05,28,02,13,9.10
2017,05,28,02,14,9.10
2017,05,28,02,15,9.10
2017,05,28,02,16,9.10
2017,05,28,02,17,9.10
2017,05,28,02,18,9.10
2017,05,28,02,19,9.10
2017,05,28,02,20,9.10
2017,05,28,02,21,9.00
2017,05,28,02,22,9.00
2017,05,28,02,23,9.00
2017,05,28,02,24,9.00
2017,05,28,02,25,9.00
2017,05,28,02,26,9.00
2017,05,28,02,27,9.00
2017,05,28,02,28,9.00
2017,05,28,02,29,9.00
2017,05,28,02,30,9.00
2017,05,28,02,31,9.00
2017,05,28,02,32,9.00
2017,05,28,02,33,8.90
2017,05,28,02,34,8.90
2017,05,28,02,35,8.90
2017,05,28,02,36,8.90
2017,05,28,02,37,8.90
2017,05,28,02,38,8.80
2017,05,28,02,39,8.80
2017,05,28,02,40,8.80
2017,05,28,02,41,8.80
2017,05,28,02,42,8.80
2017,05,28,02,43,8.80
2017,05,28,02,44,8.80
2017,05,28,02,45,8.80
2017,05,28,02,46,8.80
2017,05,28,02,47,8.80
2017,05,28,02,48,8.80
2017,05,28,02,49,8.80
2017,05,28,02,50,8.80
2017,05,28,02,51,8.80
2017,05,28,02,52,8.80
2017,05,28,02,53,8.80
2017,05,28,02,54,8.80
2017,05,28,02,55,8.80
2017,05,28,02,56,8.80
2017,05,28,02,57,8.80
2017,05,28,02,58,8.80
2017,05,28,02,59,8.80
2017,05,28,03,00,8.80
2017,05,28,03,01,8.80
2017,05,28,03,02,8.70
2017,05,28,03,03,8.70
2017,05,28,03,04,8.70
2017,05,28,03,05,8.70
2017,05,28,03,06,8.70
2017,05,28,03,07,8.70
2017,05,28,03,08,8.70
2017,05,28,03,09,8.70
2017,05,28,03,10,8.60
2017,05,28,03,11,8.60
2017,05,28,03,12,8.60
2017,05,28,03,13,8.60
2017,05,28,03,14,8.60
2017,05,28,03,15,8.60
2017,05,28,03,16,8.60
2017,05,28,03,17,8.60
2017,05,28,03,18,8.60
2017,05,28,03,19,8.60
2017,05,28,03,20,8.50
2017,05,28,03,21,8.50
2017,05,28,03,22,8.40
2017,05,28,03,23,8.40
2017,05,28,03,24,8.40
2017,05,28,03,25,8.40
2017,05,28,03,26,8.40
2017,05,28,03,27,8.40
2017,05,28,03,28,8.40
2017,05,28,03,29,8.40
2017,05,28,03,30,8.40
2017,05,28,03,31,8.40
2017,05,28,03,32,8.40
2017,05,28,03,33,8.40
2017,05,28,03,34,8.40
2017,05,28,03,35,8.40
2017,05,28,03,36,8.40
2017,05,28,03,37,8.40
2017,05,28,03,38,8.40
2017,05,28,03,39,8.40
2017,05,28,03,40,8.40
2017,05,28,03,41,8.30
2017,05,28,03,42,8.30
2017,05,28,03,43,8.30
2017,05,28,03,44,8.30
2017,05,28,03,45,8.30
2017,05,28,03,46,8.30
2017,05,28,03,47,8.30
2017,05,28,03,48,8.30
2017,05,28,03,49,8.20
2017,05,28,03,50,8.20
2017,05,28,03,51,8.20
2017,05,28,03,52,8.20
2017,05,28,03,53,8.20
2017,05,28,03,54,8.20
2017,05,28,03,55,8.20
2017,05,28,03,56,8.20
2017,05,28,03,57,8.20
2017,05,28,03,58,8.20
2017,05,28,03,59,8.20
2017,05,28,04,00,8.20
2017,05,28,04,01,8.10
2017,05,28,04,02,8.10
2017,05,28,04,03,8.10
2017,05,28,04,04,8.10
2017,05,28,04,05,8.10
2017,05,28,04,06,8.10
2017,05,28,04,07,8.10
2017,05,28,04,08,8.10
2017,05,28,04,09,8.00
2017,05,28,04,10,8.00
2017,05,28,04,11,8.00
2017,05,28,04,12,7.90
2017,05,28,04,13,7.90
2017,05,28,04,14,7.90
2017,05,28,04,15,7.90
2017,05,28,04,16,7.90
2017,05,28,04,17,7.90
2017,05,28,04,18,7.90
2017,05,28,04,19,7.90
2017,05,28,04,20,7.90
2017,05,28,04,21,7.90
2017,05,28,04,22,7.90
2017,05,28,04,23,7.90
2017,05,28,04,24,7.90
2017,05,28,04,25,7.90
2017,05,28,04,26,7.90
2017,05,28,04,27,7.90
2017,05,28,04,28,7.90
2017,05,28,04,29,7.90
2017,05,28,04,30,8.00
2017,05,28,04,31,8.00
2017,05,28,04,32,8.00
2017,05,28,04,33,8.00
2017,05,28,04,34,8.00
2017,05,28,04,35,8.10
2017,05,28,04,36,8.10
2017,05,28,04,37,8.10
2017,05,28,04,38,8.10
2017,05,28,04,39,8.20
2017,05,28,04,40,8.20
2017,05,28,04,41,8.20
2017,05,28,04,42,8.20
2017,05,28,04,43,8.20
2017,05,28,04,44,8.20
2017,05,28,04,45,8.20
2017,05,28,04,46,8.20
2017,05,28,04,47,8.20
2017,05,28,04,48,8.20
2017,05,28,04,49,8.20
2017,05,28,04,50,8.30
2017,05,28,04,51,8.30
2017,05,28,04,52,8.30
2017,05,28,04,53,8.30
2017,05,28,04,54,8.30
2017,05,28,04,55,8.40
2017,05,28,04,56,8.40
2017,05,28,04,57,8.40
2017,05,28,04,58,8.40
2017,05,28,04,59,8.40
2017,05,28,05,00,8.40
2017,05,28,05,01,8.40
2017,05,28,05,02,8.40
2017,05,28,05,03,8.40
2017,05,28,05,04,8.50
2017,05,28,05,05,8.50
2017,05,28,05,06,8.50
2017,05,28,05,07,8.50
2017,05,28,05,08,8.50
2017,05,28,05,09,8.50
2017,05,28,05,10,8.50
2017,05,28,05,11,8.50
2017,05,28,05,12,8.50
2017,05,28,05,13,8.60
2017,05,28,05,14,8.60
2017,05,28,05,15,8.60
2017,05,28,05,16,8.60
2017,05,28,05,17,8.60
2017,05,28,05,18,8.60
2017,05,28,05,19,8.60
2017,05,28,05,20,8.60
2017,05,28,05,21,8.60
2017,05,28,05,22,8.60
2017,05,28,05,23,8.60
2017,05,28,05,24,8.60
2017,05,28,05,25,8.60
2017,05,28,05,26,8.60
2017,05,28,05,27,8.60
2017,05,28,05,28,8.60
2017,05,28,05,29,8.60
2017,05,28,05,30,8.60
2017,05,28,05,31,8.70
2017,05,28,05,32,8.70
2017,05,28,05,33,8.70
2017,05,28,05,34,8.70
2017,05,28,05,35,8.70
2017,05,28,05,36,8.70
2017,05,28,05,37,8.70
2017,05,28,05,38,8.70
2017,05,28,05,39,8.70
2017,05,28,05,40,8.70
2017,05,28,05,41,8.70
2017,05,28,05,42,8.70
2017,05,28,05,43,8.70
2017,05,28,05,44,8.70
2017,05,28,05,45,8.80
2017,05,28,05,46,8.80
2017,05,28,05,47,8.80
2017,05,28,05,48,8.80
2017,05,28,05,49,8.80
2017,05,28,05,50,8.80
2017,05,28,05,51,8.80
2017,05,28,05,52,8.80
2017,05,28,05,53,8.80
2017,05,28,05,54,8.80
2017,05,28,05,55,8.80
2017,05,28,05,56,8.80
2017,05,28,05,57,8.80
2017,05,28,05,58,8.80
2017,05,28,05,59,8.80
2017,05,28,06,00,8.80
2017,05,28,06,01,8.80
2017,05,28,06,02,8.80
2017,05,28,06,03,8.80
2017,05,28,06,04,8.80
2017,05,28,06,05,8.80
2017,05,28,06,06,8.80
2017,05,28,06,07,8.80
2017,05,28,06,08,8.80
2017,05,28,06,09,8.80
2017,05,28,06,10,8.80
2017,05,28,06,11,8.80
2017,05,28,06,12,8.80
2017,05,28,06,13,8.80
2017,05,28,06,14,8.80
2017,05,28,06,15,8.80
2017,05,28,06,16,8.80
2017,05,28,06,17,8.80
2017,05,28,06,18,8.80
2017,05,28,06,19,8.80
2017,05,28,06,20,8.80
2017,05,28,06,21,8.80
2017,05,28,06,22,8.80
2017,05,28,06,23,8.80
2017,05,28,06,24,8.80
2017,05,28,06,25,8.80
2017,05,28,06,26,8.90
2017,05,28,06,27,8.90
2017,05,28,06,28,8.90
2017,05,28,06,29,8.90
2017,05,28,06,30,8.90
2017,05,28,06,31,8.90
2017,05,28,06,32,8.90
2017,05,28,06,33,8.90
2017,05,28,06,34,9.00
2017,05,28,06,35,9.00
2017,05,28,06,36,9.00
2017,05,28,06,37,9.00
2017,05,28,06,38,9.00
2017,05,28,06,39,9.10
2017,05,28,06,40,9.10
2017,05,28,06,41,9.10
2017,05,28,06,42,9.10
2017,05,28,06,43,9.10
2017,05,28,06,44,9.10
2017,05,28,06,45,9.10
2017,05,28,06,46,9.10
2017,05,28,06,47,9.10
2017,05,28,06,48,9.10
2017,05,28,06,49,9.10
2017,05,28,06,50,9.10
2017,05,28,06,51,9.10
2017,05,28,06,52,9.10
2017,05,28,06,53,9.10
2017,05,28,06,54,9.10
2017,05,28,06,55,9.10
2017,05,28,06,56,9.10
2017,05,28,06,57,9.10
2017,05,28,06,58,9.10
2017,05,28,06,59,9.20
2017,05,28,07,00,9.20
2017,05,28,07,01,9.20
2017,05,28,07,02,9.20
2017,05,28,07,03,9.20
2017,05,28,07,04,9.30
2017,05,28,07,05,9.30
2017,05,28,07,06,9.30
2017,05,28,07,07,9.30
2017,05,28,07,08,9.30
2017,05,28,07,09,9.30
2017,05,28,07,10,9.30
2017,05,28,07,11,9.30
2017,05,28,07,12,9.30
2017,05,28,07,13,9.30
2017,05,28,07,14,9.30
2017,05,28,07,15,9.30
2017,05,28,07,16,9.30
2017,05,28,07,17,9.30
2017,05,28,07,18,9.30
2017,05,28,07,19,9.30
2017,05,28,07,20,9.30
2017,05,28,07,21,9.40
2017,05,28,07,22,9.40
2017,05,28,07,23,9.50
2017,05,28,07,24,9.50
2017,05,28,07,25,9.50
2017,05,28,07,26,9.60
2017,05,28,07,27,9.60
2017,05,28,07,28,9.60
2017,05,28,07,29,9.60
2017,05,28,07,30,9.60
2017,05,28,07,31,9.60
2017,05,28,07,32,9.60
2017,05,28,07,33,9.60
2017,05,28,07,34,9.50
2017,05,28,07,35,9.50
2017,05,28,07,36,9.50
2017,05,28,07,37,9.50
2017,05,28,07,38,9.50
2017,05,28,07,39,9.50
2017,05,28,07,40,9.50
2017,05,28,07,41,9.50
2017,05,28,07,42,9.50
2017,05,28,07,43,9.50
2017,05,28,07,44,9.50
2017,05,28,07,45,9.50
2017,05,28,07,46,9.60
2017,05,28,07,47,9.60
2017,05,28,07,48,9.60
2017,05,28,07,49,9.70
2017,05,28,07,50,9.70
2017,05,28,07,51,9.70
2017,05,28,07,52,9.70
2017,05,28,07,53,9.70
2017,05,28,07,54,9.70
2017,05,28,07,55,9.70
2017,05,28,07,56,9.70
2017,05,28,07,57,9.70
2017,05,28,07,58,9.70
2017,05,28,07,59,9.80
2017,05,28,08,00,9.80
2017,05,28,08,01,9.80
2017,05,28,08,02,9.80
2017,05,28,08,03,9.90
2017,05,28,08,04,9.90
2017,05,28,08,05,9.90
2017,05,28,08,06,9.90
2017,05,28,08,07,10.00
2017,05,28,08,08,10.00
2017,05,28,08,09,10.10
2017,05,28,08,10,10.10
2017,05,28,08,11,10.20
2017,05,28,08,12,10.30
2017,05,28,08,13,10.30
2017,05,28,08,14,10.30
2017,05,28,08,15,10.30
2017,05,28,08,16,10.30
2017,05,28,08,17,10.40
2017,05,28,08,18,10.40
2017,05,28,08,19,10.40
2017,05,28,08,20,10.50
2017,05,28,08,21,10.50
2017,05,28,08,22,10.60
2017,05,28,08,23,10.60
2017,05,28,08,24,10.60
2017,05,28,08,25,10.60
2017,05,28,08,26,10.60
2017,05,28,08,27,10.70
2017,05,28,08,28,10.70
2017,05,28,08,29,10.80
2017,05,28,08,30,10.80
2017,05,28,08,31,10.90
2017,05,28,08,32,10.90
2017,05,28,08,33,11.00
2017,05,28,08,34,11.00
2017,05,28,08,35,11.10
2017,05,28,08,36,11.20
2017,05,28,08,37,11.20
2017,05,28,08,38,11.20
2017,05,28,08,39,11.20
2017,05,28,08,40,11.30
2017,05,28,08,41,11.40
2017,05,28,08,42,11.40
2017,05,28,08,43,11.50
2017,05,28,08,44,11.50
2017,05,28,08,45,11.60
2017,05,28,08,46,11.60
2017,05,28,08,47,11.70
2017,05,28,08,48,11.70
2017,05,28,08,49,11.70
2017,05,28,08,50,11.80
2017,05,28,08,51,11.80
2017,05,28,08,52,11.80
2017,05,28,08,53,11.90
2017,05,28,08,54,12.00
2017,05,28,08,55,12.00
2017,05,28,08,56,12.10
2017,05,28,08,57,12.10
2017,05,28,08,58,12.10
2017,05,28,08,59,12.10
2017,05,28,09,00,12.20
2017,05,28,09,01,12.20
2017,05,28,09,02,12.30
2017,05,28,09,03,12.30
2017,05,28,09,04,12.30
2017,05,28,09,05,12.40
2017,05,28,09,06,12.50
2017,05,28,09,07,12.60
2017,05,28,09,08,12.60
2017,05,28,09,09,12.70
2017,05,28,09,10,12.70
2017,05,28,09,11,12.80
2017,05,28,09,12,12.80
2017,05,28,09,13,12.80
2017,05,28,09,14,12.90
2017,05,28,09,15,12.90
2017,05,28,09,16,12.90
2017,05,28,09,17,12.90
2017,05,28,09,18,12.90
2017,05,28,09,19,12.90
2017,05,28,09,20,12.90
2017,05,28,09,21,12.90
2017,05,28,09,22,12.80
2017,05,28,09,23,12.70
2017,05,28,09,24,12.60
2017,05,28,09,25,12.60
2017,05,28,09,26,12.50
2017,05,28,09,27,12.40
2017,05,28,09,28,12.40
2017,05,28,09,29,12.30
2017,05,28,09,30,12.20
2017,05,28,09,31,12.20
2017,05,28,09,32,12.20
2017,05,28,09,33,12.10
2017,05,28,09,34,12.00
2017,05,28,09,35,12.00
2017,05,28,09,36,12.00
2017,05,28,09,37,12.00
2017,05,28,09,38,12.00
2017,05,28,09,39,11.90
2017,05,28,09,40,11.90
2017,05,28,09,41,11.90
2017,05,28,09,42,11.90
2017,05,28,09,43,11.90
2017,05,28,09,44,11.90
2017,05,28,09,45,11.90
2017,05,28,09,46,11.90
2017,05,28,09,47,11.90
2017,05,28,09,48,12.00
2017,05,28,09,49,12.00
2017,05,28,09,50,12.00
2017,05,28,09,51,12.00
2017,05,28,09,52,12.10
2017,05,28,09,53,12.10
2017,05,28,09,54,12.10
2017,05,28,09,55,12.20
2017,05,28,09,56,12.30
2017,05,28,09,57,12.30
2017,05,28,09,58,12.30
2017,05,28,09,59,12.30
2017,05,28,10,00,12.40
2017,05,28,10,01,12.40
2017,05,28,10,02,12.50
2017,05,28,10,03,12.60
2017,05,28,10,04,12.70
2017,05,28,10,05,12.80
2017,05,28,10,06,12.80
2017,05,28,10,07,12.90
2017,05,28,10,08,13.00
2017,05,28,10,09,13.00
2017,05,28,10,10,13.10
2017,05,28,10,11,13.20
2017,05,28,10,12,13.30
2017,05,28,10,13,13.30
2017,05,28,10,14,13.30
2017,05,28,10,15,13.40
2017,05,28,10,16,13.50
2017,05,28,10,17,13.60
2017,05,28,10,18,13.60
2017,05,28,10,19,13.80
2017,05,28,10,20,13.90
2017,05,28,10,21,13.90
2017,05,28,10,22,14.00
2017,05,28,10,23,14.00
2017,05,28,10,24,14.00
2017,05,28,10,25,14.00
2017,05,28,10,26,14.00
2017,05,28,10,27,14.00
2017,05,28,10,28,14.00
2017,05,28,10,29,14.00
2017,05,28,10,30,14.00
2017,05,28,10,31,14.00
2017,05,28,10,32,14.00
2017,05,28,10,33,14.00
2017,05,28,10,34,14.00
2017,05,28,10,35,14.00
2017,05,28,10,36,14.10
2017,05,28,10,37,14.10
2017,05,28,10,38,14.20
2017,05,28,10,39,14.20
2017,05,28,10,40,14.10
2017,05,28,10,41,14.10
2017,05,28,10,42,14.10
2017,05,28,10,43,14.20
2017,05,28,10,44,14.30
2017,05,28,10,45,14.30
2017,05,28,10,46,14.40
2017,05,28,10,47,14.50
2017,05,28,10,48,14.50
2017,05,28,10,49,14.50
2017,05,28,10,50,14.50
2017,05,28,10,51,14.50
2017,05,28,10,52,14.60
2017,05,28,10,53,14.60
2017,05,28,10,54,14.60
2017,05,28,10,55,14.70
2017,05,28,10,56,14.60
2017,05,28,10,57,14.60
2017,05,28,10,58,14.60
2017,05,28,10,59,14.60
2017,05,28,11,00,14.60
2017,05,28,11,01,14.60
2017,05,28,11,02,14.70
2017,05,28,11,03,14.70
2017,05,28,11,04,14.70
2017,05,28,11,05,14.80
2017,05,28,11,06,14.80
2017,05,28,11,07,14.80
2017,05,28,11,08,14.90
2017,05,28,11,09,15.00
2017,05,28,11,10,15.10
2017,05,28,11,11,15.10
2017,05,28,11,12,15.10
2017,05,28,11,13,15.20
2017,05,28,11,14,15.20
2017,05,28,11,15,15.30
2017,05,28,11,16,15.30
2017,05,28,11,17,15.30
2017,05,28,11,18,15.30
2017,05,28,11,19,15.30
2017,05,28,11,20,15.30
2017,05,28,11,21,15.40
2017,05,28,11,22,15.50
2017,05,28,11,23,15.50
2017,05,28,11,24,15.60
2017,05,28,11,25,15.60
2017,05,28,11,26,15.60
2017,05,28,11,27,15.60
2017,05,28,11,28,15.70
2017,05,28,11,29,15.70
2017,05,28,11,30,15.70
2017,05,28,11,31,15.80
2017,05,28,11,32,15.80
2017,05,28,11,33,15.90
2017,05,28,11,34,16.00
2017,05,28,11,35,16.00
2017,05,28,11,36,16.10
2017,05,28,11,37,16.20
2017,05,28,11,38,16.10
2017,05,28,11,39,16.10
2017,05,28,11,40,16.00
2017,05,28,11,41,15.90
2017,05,28,11,42,15.90
2017,05,28,11,43,15.90
2017,05,28,11,44,15.80
2017,05,28,11,45,15.80
2017,05,28,11,46,15.90
2017,05,28,11,47,15.90
2017,05,28,11,48,16.00
2017,05,28,11,49,16.00
2017,05,28,11,50,16.00
2017,05,28,11,51,16.00
2017,05,28,11,52,15.90
2017,05,28,11,53,15.90
2017,05,28,11,54,15.90
2017,05,28,11,55,15.80
2017,05,28,11,56,15.80
2017,05,28,11,57,15.80
2017,05,28,11,58,15.80
2017,05,28,11,59,15.80
2017,05,28,12,00,15.90
2017,05,28,12,01,16.00
2017,05,28,12,02,16.00
2017,05,28,12,03,16.10
2017,05,28,12,04,16.10
2017,05,28,12,05,16.10
2017,05,28,12,06,16.10
2017,05,28,12,07,16.20
2017,05,28,12,08,16.20
2017,05,28,12,09,16.20
2017,05,28,12,10,16.20
2017,05,28,12,11,16.20
2017,05,28,12,12,16.20
2017,05,28,12,13,16.30
2017,05,28,12,14,16.30
2017,05,28,12,15,16.30
2017,05,28,12,16,16.30
2017,05,28,12,17,16.20
2017,05,28,12,18,16.20
2017,05,28,12,19,16.20
2017,05,28,12,20,16.30
2017,05,28,12,21,16.30
2017,05,28,12,22,16.30
2017,05,28,12,23,16.30
2017,05,28,12,24,16.40
2017,05,28,12,25,16.40
2017,05,28,12,26,16.40
2017,05,28,12,27,16.50
2017,05,28,12,28,16.50
2017,05,28,12,29,16.50
2017,05,28,12,30,16.50
2017,05,28,12,31,16.50
2017,05,28,12,32,16.60
2017,05,28,12,33,16.60
2017,05,28,12,34,16.60
2017,05,28,12,35,16.60
2017,05,28,12,36,16.70
2017,05,28,12,37,16.70
2017,05,28,12,38,16.80
2017,05,28,12,39,16.80
2017,05,28,12,40,16.90
2017,05,28,12,41,16.90
2017,05,28,12,42,17.00
2017,05,28,12,43,17.10
2017,05,28,12,44,17.10
2017,05,28,12,45,17.20
2017,05,28,12,46,17.20
2017,05,28,12,47,17.20
2017,05,28,12,48,17.20
2017,05,28,12,49,17.20
2017,05,28,12,50,17.20
2017,05,28,12,51,17.30
2017,05,28,12,52,17.30
2017,05,28,12,53,17.30
2017,05,28,12,54,17.30
2017,05,28,12,55,17.30
2017,05,28,12,56,17.30
2017,05,28,12,57,17.20
2017,05,28,12,58,17.30
2017,05,28,12,59,17.30
2017,05,28,13,00,17.30
2017,05,28,13,01,17.20
2017,05,28,13,02,17.20
2017,05,28,13,03,17.20
2017,05,28,13,04,17.30
2017,05,28,13,05,17.30
2017,05,28,13,06,17.40
2017,05,28,13,07,17.40
2017,05,28,13,08,17.40
2017,05,28,13,09,17.40
2017,05,28,13,10,17.40
2017,05,28,13,11,17.40
2017,05,28,13,12,17.40
2017,05,28,13,13,17.40
2017,05,28,13,14,17.50
2017,05,28,13,15,17.50
2017,05,28,13,16,17.40
2017,05,28,13,17,17.40
2017,05,28,13,18,17.40
2017,05,28,13,19,17.40
2017,05,28,13,20,17.40
2017,05,28,13,21,17.40
2017,05,28,13,22,17.40
2017,05,28,13,23,17.40
2017,05,28,13,24,17.50
2017,05,28,13,25,17.50
2017,05,28,13,26,17.50
2017,05,28,13,27,17.50
2017,05,28,13,28,17.50
2017,05,28,13,29,17.60
2017,05,28,13,30,17.60
2017,05,28,13,31,17.70
2017,05,28,13,32,17.70
2017,05,28,13,33,17.70
2017,05,28,13,34,17.70
2017,05,28,13,35,17.70
2017,05,28,13,36,17.70
2017,05,28,13,37,17.80
2017,05,28,13,38,17.80
2017,05,28,13,39,17.90
2017,05,28,13,40,17.90
2017,05,28,13,41,17.80
2017,05,28,13,42,17.80
2017,05,28,13,43,17.80
2017,05,28,13,44,17.70
2017,05,28,13,45,17.60
2017,05,28,13,46,17.60
2017,05,28,13,47,17.60
2017,05,28,13,48,17.50
2017,05,28,13,49,17.50
2017,05,28,13,50,17.40
2017,05,28,13,51,17.30
2017,05,28,13,52,17.20
2017,05,28,13,53,17.20
2017,05,28,13,54,17.10
2017,05,28,13,55,17.10
2017,05,28,13,56,17.20
2017,05,28,13,57,17.20
2017,05,28,13,58,17.10
2017,05,28,13,59,17.10
2017,05,28,14,00,17.20
2017,05,28,14,01,17.20
2017,05,28,14,02,17.20
2017,05,28,14,03,17.20
2017,05,28,14,04,17.20
2017,05,28,14,05,17.20
2017,05,28,14,06,17.20
2017,05,28,14,07,17.20
2017,05,28,14,08,17.20
2017,05,28,14,09,17.30
2017,05,28,14,10,17.40
2017,05,28,14,11,17.40
2017,05,28,14,12,17.50
2017,05,28,14,13,17.60
2017,05,28,14,14,17.60
2017,05,28,14,15,17.60
2017,05,28,14,16,17.50
2017,05,28,14,17,17.50
2017,05,28,14,18,17.50
2017,05,28,14,19,17.40
2017,05,28,14,20,17.40
2017,05,28,14,21,17.50
2017,05,28,14,22,17.50
2017,05,28,14,23,17.60
2017,05,28,14,24,17.70
2017,05,28,14,25,17.70
2017,05,28,14,26,17.80
2017,05,28,14,27,17.80
2017,05,28,14,28,17.80
2017,05,28,14,29,17.80
2017,05,28,14,30,17.90
2017,05,28,14,31,17.90
2017,05,28,14,32,17.90
2017,05,28,14,33,17.90
2017,05,28,14,34,17.90
2017,05,28,14,35,17.90
2017,05,28,14,36,18.00
2017,05,28,14,37,18.00
2017,05,28,14,38,17.90
2017,05,28,14,39,17.90
2017,05,28,14,40,17.90
2017,05,28,14,41,17.80
2017,05,28,14,42,17.60
2017,05,28,14,43,17.60
2017,05,28,14,44,17.60
2017,05,28,14,45,17.60
2017,05,28,14,46,17.60
2017,05,28,14,47,17.60
2017,05,28,14,48,17.60
2017,05,28,14,49,17.60
2017,05,28,14,50,17.50
2017,05,28,14,51,17.40
2017,05,28,14,52,17.30
2017,05,28,14,53,17.20
2017,05,28,14,54,17.20
2017,05,28,14,55,17.20
2017,05,28,14,56,17.10
2017,05,28,14,57,17.10
2017,05,28,14,58,17.10
2017,05,28,14,59,17.10
2017,05,28,15,00,17.10
2017,05,28,15,01,17.10
2017,05,28,15,02,17.10
2017,05,28,15,03,17.10
2017,05,28,15,04,17.10
2017,05,28,15,05,17.20
2017,05,28,15,06,17.20
2017,05,28,15,07,17.20
2017,05,28,15,08,17.20
2017,05,28,15,09,17.10
2017,05,28,15,10,17.10
2017,05,28,15,11,17.10
2017,05,28,15,12,17.00
2017,05,28,15,13,16.90
2017,05,28,15,14,16.90
2017,05,28,15,15,16.80
2017,05,28,15,16,16.80
2017,05,28,15,17,16.80
2017,05,28,15,18,16.70
2017,05,28,15,19,16.60
2017,05,28,15,20,16.60
2017,05,28,15,21,16.50
2017,05,28,15,22,16.40
2017,05,28,15,23,16.40
2017,05,28,15,24,16.40
2017,05,28,15,25,16.30
2017,05,28,15,26,16.30
2017,05,28,15,27,16.30
2017,05,28,15,28,16.30
2017,05,28,15,29,16.30
2017,05,28,15,30,16.30
2017,05,28,15,31,16.20
2017,05,28,15,32,16.10
2017,05,28,15,33,16.00
2017,05,28,15,34,15.90
2017,05,28,15,35,15.80
2017,05,28,15,36,15.80
2017,05,28,15,37,15.80
2017,05,28,15,38,15.80
2017,05,28,15,39,15.70
2017,05,28,15,40,15.70
2017,05,28,15,41,15.60
2017,05,28,15,42,15.60
2017,05,28,15,43,15.60
2017,05,28,15,44,15.60
2017,05,28,15,45,15.50
2017,05,28,15,46,15.50
2017,05,28,15,47,15.40
2017,05,28,15,48,15.40
2017,05,28,15,49,15.50
2017,05,28,15,50,15.50
2017,05,28,15,51,15.60
2017,05,28,15,52,15.70
2017,05,28,15,53,15.70
2017,05,28,15,54,15.80
2017,05,28,15,55,15.80
2017,05,28,15,56,15.80
2017,05,28,15,57,15.80
2017,05,28,15,58,15.80
2017,05,28,15,59,15.70
2017,05,28,16,00,15.70
2017,05,28,16,01,15.70
2017,05,28,16,02,15.70
2017,05,28,16,03,15.80
2017,05,28,16,04,15.80
2017,05,28,16,05,15.80
2017,05,28,16,06,15.90
2017,05,28,16,07,16.00
2017,05,28,16,08,16.00
2017,05,28,16,09,16.10
2017,05,28,16,10,16.20
2017,05,28,16,11,16.30
2017,05,28,16,12,16.30
2017,05,28,16,13,16.30
2017,05,28,16,14,16.40
2017,05,28,16,15,16.40
2017,05,28,16,16,16.40
2017,05,28,16,17,16.40
2017,05,28,16,18,16.30
2017,05,28,16,19,16.30
2017,05,28,16,20,16.20
2017,05,28,16,21,16.10
2017,05,28,16,22,16.10
2017,05,28,16,23,16.00
2017,05,28,16,24,16.00
2017,05,28,16,25,16.00
2017,05,28,16,26,16.00
2017,05,28,16,27,16.00
2017,05,28,16,28,15.90
2017,05,28,16,29,15.90
2017,05,28,16,30,15.90
2017,05,28,16,31,15.90
2017,05,28,16,32,15.90
2017,05,28,16,33,15.90
2017,05,28,16,34,15.90
2017,05,28,16,35,16.00
2017,05,28,16,36,16.00
2017,05,28,16,37,16.10
2017,05,28,16,38,16.10
2017,05,28,16,39,16.10
2017,05,28,16,40,16.10
2017,05,28,16,41,16.10
2017,05,28,16,42,16.10
2017,05,28,16,43,16.10
2017,05,28,16,44,16.10
2017,05,28,16,45,16.10
2017,05,28,16,46,16.10
2017,05,28,16,47,16.10
2017,05,28,16,48,16.20
2017,05,28,16,49,16.20
2017,05,28,16,50,16.20
2017,05,28,16,51,16.20
2017,05,28,16,52,16.20
2017,05,28,16,53,16.20
2017,05,28,16,54,16.20
2017,05,28,16,55,16.10
2017,05,28,16,56,16.10
2017,05,28,16,57,16.10
2017,05,28,16,58,16.10
2017,05,28,16,59,16.10
2017,05,28,17,00,16.10
2017,05,28,17,01,16.00
2017,05,28,17,02,15.90
2017,05,28,17,03,15.80
2017,05,28,17,04,15.70
2017,05,28,17,05,15.50
2017,05,28,17,06,15.40
2017,05,28,17,07,15.30
2017,05,28,17,08,15.10
2017,05,28,17,09,15.10
2017,05,28,17,10,15.10
2017,05,28,17,11,15.00
2017,05,28,17,12,15.00
2017,05,28,17,13,15.00
2017,05,28,17,14,14.90
2017,05,28,17,15,14.90
2017,05,28,17,16,14.90
2017,05,28,17,17,14.90
2017,05,28,17,18,14.90
2017,05,28,17,19,14.90
2017,05,28,17,20,14.90
2017,05,28,17,21,15.00
2017,05,28,17,22,15.00
2017,05,28,17,23,15.10
2017,05,28,17,24,15.10
2017,05,28,17,25,15.20
2017,05,28,17,26,15.20
2017,05,28,17,27,15.20
2017,05,28,17,28,15.20
2017,05,28,17,29,15.20
2017,05,28,17,30,15.20
2017,05,28,17,31,15.20
2017,05,28,17,32,15.20
2017,05,28,17,33,15.20
2017,05,28,17,34,15.20
2017,05,28,17,35,15.20
2017,05,28,17,36,15.20
2017,05,28,17,37,15.30
2017,05,28,17,38,15.30
2017,05,28,17,39,15.30